Tracking 18957 objects as of 24-Jan-2018
HD Live streaming from Space Station
objects crossing your sky now

GLOBALSTAR M090

Track GLOBALSTAR M090 now!
10-day predictions
GLOBALSTAR M090 is classified as:


NORAD ID: 38044
Int'l Code: 2011-080E
Perigee: 1,420.2 km
Apogee: 1,421.3 km
Inclination: 52.0 °
Period: 114.1 minutes
Semi major axis: 7791 km
RCS: 4.6821 m2 (large)
Launch date: December 28, 2011
Source: Globalstar (GLOB)
Launch site: TYURATAM MISSILE AND SPACE COMPLEX (TTMTR)
aabbcc
Your satellite tracking list
Your tracking list is empty




NASA's NSSDC Master Catalog

Two Line Element Set (TLE):
1 38044U 11080E   18023.26880972 -.00000073  00000-0  17324-3 0  9996
2 38044  51.9897 307.2573 0000711  33.0855 131.8445 12.62268463282435
Source of the keplerian elements: AFSPC